Regional Weather Roundup
Issued by NWS Kansas City/Pleasant Hill, MO

Home | Current Version | Previous Version | Text Only | Print | Product List | Glossary On
Versions: 1 2 3 4 5 6 7 8 9 10 11 12 13 14 15 16 17 18 19 20 21 22 23 24 25 26 27 28 29 30 31 32 33 34 35 36 37 38 39 40 41 42 43 44 45 46 47 48 49 50
000
ASUS43 KEAX 180610
RWREAX

WEATHER ROUNDUP FOR EASTERN KANSAS AND NORTHWEST MISSOURI
NATIONAL WEATHER SERVICE KANSAS CITY/PLEASANT HILL MO
100 AM CDT THU SEP 18 2014

KSZ040-057-103>105-MOZ028-029-037-043-180700-
...KANSAS CITY METROPOLITAN AREA...

CITY           SKY/WX    TMP DP  RH WIND       PRES   REMARKS
K.C. INTL      MOCLDY    65  63  93 E8        29.96F
6HR MIN TEMP:  65; 6HR MAX TEMP:  71;

K.C. DOWNTOWN  PTCLDY    65  63  93 E9        29.94F
6HR MIN TEMP:  64; 6HR MAX TEMP:  72;

LEES SUMMIT    CLOUDY    64  63  96 E12       29.96F FOG
6HR MIN TEMP:  63; 6HR MAX TEMP:  69;

OLATHE - IXD   CLOUDY    65  65 100 E7        29.94F FOG
6HR MIN TEMP:  64; 6HR MAX TEMP:  71;

OLATHE - OJC   FOG       64  64 100 E8        29.94F VSB 1
6HR MIN TEMP:  63; 6HR MAX TEMP:  70;

LAWRENCE       FOG       62  61  96 SE7       29.93F VSB 1

$$

MOZ001>008-011>017-020>025-030>033-038>040-044>046-053-054-180700-
...NORTHERN AND CENTRAL MISSOURI...

CITY           SKY/WX    TMP DP  RH WIND       PRES   REMARKS
ST. JOSEPH     MOCLDY    64  62  93 E6        29.97S
6HR MIN TEMP:  59; 6HR MAX TEMP:  75;

MOSBY          CLEAR     63  63 100 E5        29.97F
WHITEMAN AFB   CLOUDY    63  61  94 E8        29.96F FOG
CLINTON        CLOUDY    66  66 100 E6        29.95F FOG
SEDALIA        FOG       63  62  97 E8        29.98F VSB 1/4
6HR MIN TEMP:  63; 6HR MAX TEMP:  70;

WARSAW         NOT AVBL
MARSHALL       CLOUDY    64  64 100 E7        29.99F FOG
CHILLICOTHE      N/A     63  59  87 SE3       30.01S
6HR MIN TEMP:  63; 6HR MAX TEMP:  72; 6HR PCP:  0.02;

MOBERLY        FOG       61  57  88 CALM      30.01  VSB 1/2
KIRKSVILLE     FOG       56  55  97 E3        30.02S VSB 3/4
6HR MIN TEMP:  55; 6HR MAX TEMP:  67;


$$

MOZ041-047>049-056>058-063>065-088>090-097-180700-
...EASTERN AND SOUTHERN MISSOURI...

CITY           SKY/WX    TMP DP  RH WIND       PRES   REMARKS
ST. LOUIS INTL CLOUDY    63  56  78 E6        30.00F
6HR MIN TEMP:  62; 6HR MAX TEMP:  64; 6HR PCP: TRACE;

SPIRIT OF STL  CLOUDY    61  55  82 CALM      29.99S
JEFFERSON CITY CLOUDY    62  61  96 E5        29.98F FOG
MEXICO         FOG      N/A N/A N/A E3        30.00S VSB 3/4
HANNIBAL       FOG       55  52  88 CALM      30.02S VSB 1
ROLLA          CLOUDY    61  60  97 E5        29.98R FOG
LEBANON        MOCLDY    64  63  94 E5        29.97
OSAGE BEACH    CLOUDY    64  63  94 E5        29.97S
SPRINGFIELD    CLOUDY    65  62  90 SE10      29.94F
BRANSON        LGT RAIN  64  64 100 E6        29.95F VSB<1/4
JOPLIN         CLOUDY    67  64  90 S5        29.89F
WEST PLAINS    FOG       60  59  96 E5        29.99F VSB 3/4

$$

IAZ060-094-KSZ022-034>040-054-083-096-NEZ052-066-093-180700-
...KANSAS...SOUTHEAST NEBRASKA AND IOWA...

CITY           SKY/WX    TMP DP  RH WIND       PRES   REMARKS
TOPEKA         CLOUDY    65  65 100 E5        29.93F FOG
6HR MIN TEMP:  62; 6HR MAX TEMP:  73;

MANHATTAN      MOCLDY    67  65  93 E8        29.91F
EMPORIA        CLOUDY    68  66  93 E12       29.90F
CHANUTE        CLOUDY    71  67  87 SE3       29.89F
WICHITA        MOCLDY    76  67  73 E9        29.86F
OMAHA          PTCLDY    65  58  78 SE8       29.99R
LINCOLN        PTCLDY    66  61  84 CALM      29.97S
FALLS CITY     MOCLDY    62  61  96 E6        29.95F
LAMONI         CLEAR     59  58  96 SE3       30.01R
DES MOINES     CLEAR     62  57  83 CALM      30.01R

$$



USA.gov is the U.S. government's official web portal to all federal, state and local government web resources and services.